DW3649 Weather Reports


Display with metric or nautical units.
time (UTC)temp
F
wind
direction
speed
MPH
gust
MPH
rain 1hr
in
rain 24hr
in
rain mn
in
humidity
%
barometer
mb
20260508200036 68 123 4.0 0.0 0.00 0.00 0.00 50 1014.9
20260508194523 68 142 4.0 0.0 0.00 0.00 0.00 48 1014.9
20260508193022 68 136 6.0 0.0 0.00 0.00 0.00 46 1014.6
20260508191523 68 143 5.0 0.0 0.00 0.00 0.00 44 1014.6
20260508190023 69 191 5.0 0.0 0.00 0.00 0.00 42 1014.5
20260508184526 69 145 7.0 0.0 0.00 0.00 0.00 41 1014.1
20260508183021 69 124 7.0 0.0 0.00 0.00 0.00 41 1014.0
20260508181520 70 138 7.0 0.0 0.00 0.00 0.00 41 1013.9
20260508180019 70 153 8.0 0.0 0.00 0.00 0.00 40 1013.4
20260508174522 70 134 7.0 0.0 0.00 0.00 0.00 42 1013.3
20260508173020 70 155 6.0 0.0 0.00 0.00 0.00 43 1013.0
20260508171530 69 167 6.0 0.0 0.00 0.00 0.00 45 1013.2
20260508170018 69 148 6.0 0.0 0.00 0.00 0.00 47 1013.2
20260508164521 69 132 5.0 0.0 0.00 0.00 0.00 48 1013.0
20260508163016 69 178 8.0 0.0 0.00 0.00 0.00 47 1012.9
20260508161530 69 120 7.0 0.0 0.00 0.00 0.00 46 1012.9
20260508160019 69 147 8.0 0.0 0.00 0.00 0.00 46 1012.9
20260508154515 69 146 6.0 0.0 0.00 0.00 0.00 46 1012.9
20260508153015 69 138 8.0 0.0 0.00 0.00 0.00 46 1013.0
20260508151514 70 151 7.0 0.0 0.00 0.00 0.00 45 1012.9
20260508150020 70 170 8.0 0.0 0.00 0.00 0.00 46 1012.9
20260508144530 70 168 8.0 0.0 0.00 0.00 0.00 47 1012.8
20260508143025 70 159 12.0 0.0 0.00 0.00 0.00 48 1012.8
20260508141520 70 152 12.0 0.0 0.00 0.00 0.00 49 1013.0
20260508140008 71 185 8.0 0.0 0.00 0.00 0.00 51 1013.0
20260508134506 70 167 11.0 0.0 0.00 0.00 0.00 53 1013.3
20260508133003 71 138 6.0 0.0 0.00 0.00 0.00 50 1013.5
20260508131604 71 161 7.0 0.0 0.00 0.00 0.00 49 1013.8
20260508130100 70 168 9.0 0.0 0.00 0.00 0.00 48 1013.9
20260508124601 69 155 12.0 0.0 0.00 0.00 0.00 48 1014.1
20260508123054 69 148 14.0 0.0 0.00 0.00 0.00 46 1014.5
20260508121553 69 150 10.0 0.0 0.00 0.00 0.00 43 1014.9
20260508120052 70 146 9.0 0.0 0.00 0.00 0.00 42 1014.7
20260508114550 70 163 6.0 0.0 0.00 0.00 0.00 44 1015.0
20260508113122 70 177 5.0 0.0 0.00 0.00 0.00 43 1014.9
20260508111549 70 140 5.0 0.0 0.00 0.00 0.00 45 1015.3
20260508110049 70 230 3.0 0.0 0.00 0.00 0.00 44 1015.7
20260508104555 70 190 5.0 0.0 0.00 0.00 0.00 45 1015.8
20260508103050 70 181 5.0 0.0 0.00 0.00 0.00 46 1016.0
20260508101549 70 123 5.0 0.0 0.00 0.00 0.00 45 1015.8
20260508100045 69 152 4.0 0.0 0.00 0.00 0.00 46 1016.2
20260508094542 69 163 5.0 0.0 0.00 0.00 0.00 47 1016.7
20260508093041 68 126 6.0 0.0 0.00 0.00 0.00 47 1016.7
20260508091545 68 203 5.0 0.0 0.00 0.00 0.00 51 1017.1
20260508090045 68 162 4.0 0.0 0.00 0.00 0.00 51 1017.0
20260508084538 68 165 6.0 0.0 0.00 0.00 0.00 50 1017.1
20260508083039 68 164 5.0 0.0 0.00 0.00 0.00 49 1017.2
20260508081539 68 148 4.0 0.0 0.00 0.00 0.00 47 1017.0
20260508080045 68 131 5.0 0.0 0.00 0.00 0.00 47 1017.2
20260508074534 67 150 7.0 0.0 0.00 0.00 0.00 45 1017.1
20260508073033 66 199 5.0 0.0 0.00 0.00 0.00 46 1017.4
20260508071532 66 136 5.0 0.0 0.00 0.00 0.00 45 1017.4
20260508070031 66 179 4.0 0.0 0.00 0.00 0.00 44 1018.0
20260508064551 66 221 4.0 0.0 0.00 0.00 0.00 42 1017.8
20260508063029 67 167 3.0 0.0 0.00 0.00 0.00 39 1017.5
20260508061525 67 194 2.0 0.0 0.00 0.00 0.00 37 1017.4
20260508060031 67 173 5.0 0.0 0.00 0.00 0.00 33 1017.0
20260508054534 67 177 4.0 0.0 0.00 0.00 0.00 34 1016.3
20260508053020 66 103 0.0 0.0 0.00 0.00 0.00 39 1016.0
20260508051525 66 88 0.0 0.0 0.00 0.00 0.00 40 1015.7
20260508050031 66 88 0.0 0.0 0.00 0.00 0.00 42 1015.5
20260508044520 66 88 1.0 0.0 0.00 0.00 0.00 45 1015.6
20260508043020 65 24 0.0 0.0 0.00 0.00 0.00 49 1015.5
20260508041517 65 24 0.0 0.0 0.00 0.00 0.00 52 1015.0
20260508040017 65 26 0.0 0.0 0.00 0.00 0.00 50 1014.7
20260508034524 65 26 0.0 0.0 0.00 0.00 0.00 47 1014.5
20260508033016 64 26 0.0 0.0 0.00 0.00 0.00 51 1014.4
20260508031516 65 26 0.0 0.0 0.00 0.00 0.00 52 1014.6
20260508030016 65 26 0.0 0.0 0.00 0.00 0.00 55 1014.5
20260508024519 65 142 0.0 0.0 0.00 0.00 0.00 53 1014.5
20260508023014 66 147 0.0 0.0 0.00 0.00 0.00 51 1014.6
20260508021513 67 147 0.0 0.0 0.00 0.00 0.00 45 1014.7
20260508020013 67 147 0.0 0.0 0.00 0.00 0.00 38 1014.7
20260508014511 67 146 3.0 0.0 0.00 0.00 0.00 39 1014.6
20260508013008 66 132 2.0 0.0 0.00 0.00 0.00 40 1014.8
20260508011506 65 87 0.0 0.0 0.00 0.00 0.00 49 1015.1
20260508010009 65 87 0.0 0.0 0.00 0.00 0.00 52 1015.3
20260508004502 65 87 0.0 0.0 0.00 0.00 0.00 51 1015.4
20260508003002 65 90 0.0 0.0 0.00 0.00 0.00 51 1015.3
20260508001501 65 90 0.0 0.0 0.00 0.00 0.00 53 1015.4
20260508000121 65 90 0.0 0.0 0.00 0.00 0.00 51 1015.4
20260507234558 65 90 0.0 0.0 0.00 0.00 0.00 49 1015.6
20260507233057 65 90 0.0 0.0 0.00 0.00 0.00 49 1016.0
20260507231609 65 138 0.0 0.0 0.00 0.00 0.00 50 1016.1
20260507230056 65 138 0.0 0.0 0.00 0.00 0.00 56 1016.0
20260507224553 65 138 0.0 0.0 0.00 0.00 0.00 55 1016.3
20260507223052 65 138 0.0 0.0 0.00 0.00 0.00 52 1016.3
20260507221558 65 138 0.0 0.0 0.00 0.00 0.00 53 1016.3
20260507220052 65 145 2.0 0.0 0.00 0.00 0.00 53 1016.4
20260507214549 66 141 3.0 0.0 0.00 0.00 0.00 50 1016.7
20260507213047 66 128 1.0 0.0 0.00 0.00 0.00 49 1016.7
20260507211555 66 130 3.0 0.0 0.00 0.00 0.00 48 1016.8
20260507210047 66 229 4.0 0.0 0.00 0.00 0.00 45 1016.8
20260507204542 67 224 4.0 0.0 0.00 0.00 0.00 39 1016.7
20260507203041 68 135 2.0 0.0 0.00 0.00 0.00 34 1016.9
20260507201539 68 75 0.0 0.0 0.00 0.00 0.00 33 1016.7